Regional Weather Roundup
Issued by NWS

Home | Current Version | Previous Version | Graphics & Text | Print | Product List | Glossary On
Versions: 1 2 3 4 5 6 7 8 9 10 11 12 13 14 15 16 17 18 19 20 21 22 23 24 25 26 27 28 29 30 31 32 33 34 35 36 37 38 39 40 41 42 43 44 45 46 47 48 49 50
000
ASUS45 KABQ 241101
RWRNM
NEW MEXICO REGIONAL WEATHER ROUNDUP
NATIONAL WEATHER SERVICE ALBUQUERQUE NM
500 AM MDT SAT JUN 24 2017

NOTE: "FAIR" MEANS FEW OR NO CLOUDS BELOW 12,000 FEET AGL WITH NO
       SIGNIFICANT WEATHER OR OBSTRUCTIONS TO VISION.

      THIS PRODUCT IS RELEASED AS TWO VERSIONS.  ONE VERSION NEAR
      THE TOP OF THE HOUR CONTAINING PRELIMINARY DATA FROM ALBUQUERQUE
      AND OTHER STATIONS.  A FINAL VERSION WITH ADDITIONAL DATA IS
      ISSUED ABOUT 10 MINUTES AFTER THE HOUR.

NMZ501-503-504-510>518-241200-
NORTHWEST PLATEAU/NORTHCENTRAL MOUNTAINS

CITY           SKY/WX    TMP DP  RH WIND       PRES   REMARKS
FARMINGTON     FAIR      65  47  52 E10       30.15R
LOS ALAMOS     CLOUDY    61  49  65 S10G16    30.37R
SANTA FE       MOCLDY    63  52  67 S6        30.29R
TAOS           MOCLDY    55  41  58 E7        30.35R
ANGEL FIRE     FAIR      44  42  91 CALM      30.43S

$$
NMZ402-403-502-505>509-241200-
WESTCENTRAL MOUNTAINS/SOUTHWEST MOUNTAINS

CITY           SKY/WX    TMP DP  RH WIND       PRES   REMARKS
GALLUP         FAIR      57  31  37 NE3       30.25R
GRANTS         FAIR      65  54  67 SE14      30.29R
SILVER CITY    FAIR      64  51  62 CALM      30.15R

$$
NMZ407-409-411-412-241200-
SOUTHERN DESERTS

CITY           SKY/WX    TMP DP  RH WIND       PRES   REMARKS
DEMING         FAIR      74  55  51 E7        30.06S
LAS CRUCES     FAIR      74  51  43 W7        30.08R
HOLLOMAN AFB   FAIR      77  56  48 S3        30.08R
T OR C         FAIR      76  57  51 N10G21    30.13R

$$
NMZ519>523-241200-
CENTRAL VALLEYS/CENTRAL HIGHLANDS

CITY           SKY/WX    TMP DP  RH WIND       PRES   REMARKS
ALBUQUERQUE    FAIR      68  51  54 E18G26    30.21R
MORIARTY ARPT  CLOUDY    64  51  62 SE7       30.33F
CLINES CORNERS MOCLDY    56  46  69 E12       30.37S
BELEN          NOT AVBL
SOCORRO        FAIR      73  58  60 CALM      30.18R

$$
NMZ524>526-539-540-241200-
SOUTHCENTRAL MOUNTAINS

CITY           SKY/WX    TMP DP  RH WIND       PRES   REMARKS
RUIDOSO        NOT AVBL

$$
NMZ527>531-241200-
NORTHEAST HIGHLANDS/NORTHEAST PLAINS

CITY           SKY/WX    TMP DP  RH WIND       PRES   REMARKS
LAS VEGAS      CLOUDY    56  47  71 E6        30.36F
RATON          CLOUDY    54  46  74 SW6       30.34S
CLAYTON        CLOUDY    57  49  74 N5        30.30S

$$
NMZ532>537-241200-
EASTCENTRAL PLAINS

CITY           SKY/WX    TMP DP  RH WIND       PRES   REMARKS
SANTA ROSA     CLOUDY    63  47  56 NE10      30.26S
TUCUMCARI      CLOUDY    65  49  56 E10       30.24R
CANNON AFB     CLOUDY    62  50  66 NE20      30.24R
CLOVIS AIRPORT CLOUDY    60  49  66 NE21      30.24R

$$
NMZ028-029-538-241200-
SOUTHEAST PLAINS

CITY           SKY/WX    TMP DP  RH WIND       PRES   REMARKS
ROSWELL        FAIR      69  54  58 N8        30.15R
ARTESIA        FAIR      70  52  52 NE7       30.14R
CARLSBAD       FAIR      72  56  57 NE6       30.09R


$$




USA.gov is the U.S. government's official web portal to all federal, state and local government web resources and services.